Year,Month,Day,Hour,Minute,Value (Times are PST for temperature in C)
2018,10,23,00,00,7.70
2018,10,23,00,01,7.70
2018,10,23,00,02,7.70
2018,10,23,00,03,7.60
2018,10,23,00,04,7.60
2018,10,23,00,05,7.50
2018,10,23,00,06,7.50
2018,10,23,00,07,7.40
2018,10,23,00,08,7.40
2018,10,23,00,09,7.40
2018,10,23,00,10,7.40
2018,10,23,00,11,7.40
2018,10,23,00,12,7.40
2018,10,23,00,13,7.40
2018,10,23,00,14,7.40
2018,10,23,00,15,7.40
2018,10,23,00,16,7.30
2018,10,23,00,17,7.30
2018,10,23,00,18,7.30
2018,10,23,00,19,7.20
2018,10,23,00,20,7.20
2018,10,23,00,21,7.20
2018,10,23,00,22,7.10
2018,10,23,00,23,7.00
2018,10,23,00,24,7.00
2018,10,23,00,25,6.90
2018,10,23,00,26,6.90
2018,10,23,00,27,6.90
2018,10,23,00,28,6.80
2018,10,23,00,29,6.80
2018,10,23,00,30,6.70
2018,10,23,00,31,6.70
2018,10,23,00,32,6.70
2018,10,23,00,33,6.80
2018,10,23,00,34,6.80
2018,10,23,00,35,6.90
2018,10,23,00,36,7.10
2018,10,23,00,37,7.10
2018,10,23,00,38,7.20
2018,10,23,00,39,7.20
2018,10,23,00,40,7.10
2018,10,23,00,41,7.10
2018,10,23,00,42,7.10
2018,10,23,00,43,7.10
2018,10,23,00,44,7.10
2018,10,23,00,45,7.20
2018,10,23,00,46,7.20
2018,10,23,00,47,7.20
2018,10,23,00,48,7.10
2018,10,23,00,49,7.10
2018,10,23,00,50,7.20
2018,10,23,00,51,7.20
2018,10,23,00,52,7.20
2018,10,23,00,53,7.30
2018,10,23,00,54,7.30
2018,10,23,00,55,7.30
2018,10,23,00,56,7.40
2018,10,23,00,57,7.40
2018,10,23,00,58,7.40
2018,10,23,00,59,7.40
2018,10,23,01,00,7.50
2018,10,23,01,01,7.50
2018,10,23,01,02,7.50
2018,10,23,01,03,7.50
2018,10,23,01,04,7.50
2018,10,23,01,05,7.50
2018,10,23,01,06,7.50
2018,10,23,01,07,7.50
2018,10,23,01,08,7.40
2018,10,23,01,09,7.40
2018,10,23,01,10,7.40
2018,10,23,01,11,7.40
2018,10,23,01,12,7.40
2018,10,23,01,13,7.30
2018,10,23,01,14,7.30
2018,10,23,01,15,7.30
2018,10,23,01,16,7.20
2018,10,23,01,17,7.20
2018,10,23,01,18,7.20
2018,10,23,01,19,7.20
2018,10,23,01,20,7.10
2018,10,23,01,21,7.10
2018,10,23,01,22,7.00
2018,10,23,01,23,7.00
2018,10,23,01,24,7.00
2018,10,23,01,25,7.00
2018,10,23,01,26,7.00
2018,10,23,01,27,7.00
2018,10,23,01,28,7.00
2018,10,23,01,29,7.00
2018,10,23,01,30,6.90
2018,10,23,01,31,6.90
2018,10,23,01,32,6.90
2018,10,23,01,33,6.90
2018,10,23,01,34,6.90
2018,10,23,01,35,7.00
2018,10,23,01,36,7.00
2018,10,23,01,37,7.00
2018,10,23,01,38,7.00
2018,10,23,01,39,7.00
2018,10,23,01,40,6.90
2018,10,23,01,41,6.90
2018,10,23,01,42,6.90
2018,10,23,01,43,6.90
2018,10,23,01,44,6.80
2018,10,23,01,45,6.80
2018,10,23,01,46,6.70
2018,10,23,01,47,6.60
2018,10,23,01,48,6.50
2018,10,23,01,49,6.40
2018,10,23,01,50,6.30
2018,10,23,01,51,6.30
2018,10,23,01,52,6.20
2018,10,23,01,53,6.30
2018,10,23,01,54,6.30
2018,10,23,01,55,6.30
2018,10,23,01,56,6.30
2018,10,23,01,57,6.30
2018,10,23,01,58,6.40
2018,10,23,01,59,6.40
2018,10,23,02,00,6.40
2018,10,23,02,01,6.40
2018,10,23,02,02,6.50
2018,10,23,02,03,6.50
2018,10,23,02,04,6.50
2018,10,23,02,05,6.60
2018,10,23,02,06,6.70
2018,10,23,02,07,6.70
2018,10,23,02,08,6.60
2018,10,23,02,09,6.60
2018,10,23,02,10,6.50
2018,10,23,02,11,6.50
2018,10,23,02,12,6.50
2018,10,23,02,13,6.60
2018,10,23,02,14,6.60
2018,10,23,02,15,6.60
2018,10,23,02,16,6.60
2018,10,23,02,17,6.70
2018,10,23,02,18,6.70
2018,10,23,02,19,6.70
2018,10,23,02,20,6.60
2018,10,23,02,21,6.50
2018,10,23,02,22,6.40
2018,10,23,02,23,6.30
2018,10,23,02,24,6.30
2018,10,23,02,25,6.30
2018,10,23,02,26,6.40
2018,10,23,02,27,6.40
2018,10,23,02,28,6.50
2018,10,23,02,29,6.50
2018,10,23,02,30,6.60
2018,10,23,02,31,6.60
2018,10,23,02,32,6.70
2018,10,23,02,33,6.70
2018,10,23,02,34,6.60
2018,10,23,02,35,6.60
2018,10,23,02,36,6.60
2018,10,23,02,37,6.60
2018,10,23,02,38,6.60
2018,10,23,02,39,6.60
2018,10,23,02,40,6.60
2018,10,23,02,41,6.50
2018,10,23,02,42,6.50
2018,10,23,02,43,6.50
2018,10,23,02,44,6.50
2018,10,23,02,45,6.50
2018,10,23,02,46,6.40
2018,10,23,02,47,6.40
2018,10,23,02,48,6.30
2018,10,23,02,49,6.30
2018,10,23,02,50,6.30
2018,10,23,02,51,6.20
2018,10,23,02,52,6.20
2018,10,23,02,53,6.20
2018,10,23,02,54,6.20
2018,10,23,02,55,6.30
2018,10,23,02,56,6.30
2018,10,23,02,57,6.20
2018,10,23,02,58,6.20
2018,10,23,02,59,6.20
2018,10,23,03,00,6.30
2018,10,23,03,01,6.30
2018,10,23,03,02,6.30
2018,10,23,03,03,6.30
2018,10,23,03,04,6.30
2018,10,23,03,05,6.30
2018,10,23,03,06,6.30
2018,10,23,03,07,6.30
2018,10,23,03,08,6.20
2018,10,23,03,09,6.20
2018,10,23,03,10,6.20
2018,10,23,03,11,6.20
2018,10,23,03,12,6.20
2018,10,23,03,13,6.10
2018,10,23,03,14,6.10
2018,10,23,03,15,6.10
2018,10,23,03,16,6.10
2018,10,23,03,17,6.20
2018,10,23,03,18,6.20
2018,10,23,03,19,6.20
2018,10,23,03,20,6.20
2018,10,23,03,21,6.10
2018,10,23,03,22,6.10
2018,10,23,03,23,6.10
2018,10,23,03,24,6.10
2018,10,23,03,25,6.10
2018,10,23,03,26,6.20
2018,10,23,03,27,6.20
2018,10,23,03,28,6.30
2018,10,23,03,29,6.30
2018,10,23,03,30,6.30
2018,10,23,03,31,6.30
2018,10,23,03,32,6.30
2018,10,23,03,33,6.30
2018,10,23,03,34,6.20
2018,10,23,03,35,6.20
2018,10,23,03,36,6.10
2018,10,23,03,37,6.00
2018,10,23,03,38,6.00
2018,10,23,03,39,6.00
2018,10,23,03,40,5.90
2018,10,23,03,41,5.90
2018,10,23,03,42,6.00
2018,10,23,03,43,6.00
2018,10,23,03,44,6.00
2018,10,23,03,45,6.00
2018,10,23,03,46,6.00
2018,10,23,03,47,6.00
2018,10,23,03,48,6.00
2018,10,23,03,49,6.00
2018,10,23,03,50,6.00
2018,10,23,03,51,6.00
2018,10,23,03,52,6.10
2018,10,23,03,53,6.10
2018,10,23,03,54,6.00
2018,10,23,03,55,6.00
2018,10,23,03,56,6.00
2018,10,23,03,57,6.00
2018,10,23,03,58,6.00
2018,10,23,03,59,6.00
2018,10,23,04,00,6.00
2018,10,23,04,01,6.00
2018,10,23,04,02,6.00
2018,10,23,04,03,6.10
2018,10,23,04,04,6.00
2018,10,23,04,05,6.00
2018,10,23,04,06,6.00
2018,10,23,04,07,6.00
2018,10,23,04,08,5.90
2018,10,23,04,09,5.90
2018,10,23,04,10,5.80
2018,10,23,04,11,5.80
2018,10,23,04,12,5.90
2018,10,23,04,13,5.90
2018,10,23,04,14,5.90
2018,10,23,04,15,5.90
2018,10,23,04,16,5.90
2018,10,23,04,17,5.90
2018,10,23,04,18,5.90
2018,10,23,04,19,5.90
2018,10,23,04,20,5.90
2018,10,23,04,21,5.80
2018,10,23,04,22,5.80
2018,10,23,04,23,5.80
2018,10,23,04,24,5.80
2018,10,23,04,25,5.80
2018,10,23,04,26,5.70
2018,10,23,04,27,5.70
2018,10,23,04,28,5.70
2018,10,23,04,29,5.70
2018,10,23,04,30,5.70
2018,10,23,04,31,5.70
2018,10,23,04,32,5.70
2018,10,23,04,33,5.70
2018,10,23,04,34,5.70
2018,10,23,04,35,5.80
2018,10,23,04,36,5.80
2018,10,23,04,37,5.80
2018,10,23,04,38,5.80
2018,10,23,04,39,5.90
2018,10,23,04,40,5.90
2018,10,23,04,41,5.90
2018,10,23,04,42,5.90
2018,10,23,04,43,5.90
2018,10,23,04,44,5.90
2018,10,23,04,45,5.90
2018,10,23,04,46,5.80
2018,10,23,04,47,5.80
2018,10,23,04,48,5.80
2018,10,23,04,49,5.80
2018,10,23,04,50,5.70
2018,10,23,04,51,5.70
2018,10,23,04,52,5.70
2018,10,23,04,53,5.70
2018,10,23,04,54,5.70
2018,10,23,04,55,5.60
2018,10,23,04,56,5.50
2018,10,23,04,57,5.50
2018,10,23,04,58,5.50
2018,10,23,04,59,5.50
2018,10,23,05,00,5.50
2018,10,23,05,01,5.50
2018,10,23,05,02,5.40
2018,10,23,05,03,5.40
2018,10,23,05,04,5.40
2018,10,23,05,05,5.30
2018,10,23,05,06,5.40
2018,10,23,05,07,5.40
2018,10,23,05,08,5.40
2018,10,23,05,09,5.40
2018,10,23,05,10,5.50
2018,10,23,05,11,5.50
2018,10,23,05,12,5.60
2018,10,23,05,13,5.60
2018,10,23,05,14,5.70
2018,10,23,05,15,5.70
2018,10,23,05,16,5.80
2018,10,23,05,17,5.80
2018,10,23,05,18,5.80
2018,10,23,05,19,5.80
2018,10,23,05,20,5.80
2018,10,23,05,21,5.90
2018,10,23,05,22,5.90
2018,10,23,05,23,5.90
2018,10,23,05,24,6.00
2018,10,23,05,25,6.00
2018,10,23,05,26,6.00
2018,10,23,05,27,6.00
2018,10,23,05,28,6.00
2018,10,23,05,29,6.00
2018,10,23,05,30,5.90
2018,10,23,05,31,5.90
2018,10,23,05,32,5.90
2018,10,23,05,33,5.80
2018,10,23,05,34,5.70
2018,10,23,05,35,5.70
2018,10,23,05,36,5.60
2018,10,23,05,37,5.70
2018,10,23,05,38,5.70
2018,10,23,05,39,5.70
2018,10,23,05,40,5.70
2018,10,23,05,41,5.70
2018,10,23,05,42,5.70
2018,10,23,05,43,5.70
2018,10,23,05,44,5.60
2018,10,23,05,45,5.50
2018,10,23,05,46,5.50
2018,10,23,05,47,5.40
2018,10,23,05,48,5.30
2018,10,23,05,49,5.30
2018,10,23,05,50,5.20
2018,10,23,05,51,5.10
2018,10,23,05,52,5.10
2018,10,23,05,53,5.10
2018,10,23,05,54,5.10
2018,10,23,05,55,5.20
2018,10,23,05,56,5.10
2018,10,23,05,57,5.10
2018,10,23,05,58,5.10
2018,10,23,05,59,5.10
2018,10,23,06,00,5.10
2018,10,23,06,01,5.10
2018,10,23,06,02,5.10
2018,10,23,06,03,5.10
2018,10,23,06,04,5.20
2018,10,23,06,05,5.20
2018,10,23,06,06,5.20
2018,10,23,06,07,5.20
2018,10,23,06,08,5.20
2018,10,23,06,09,5.30
2018,10,23,06,10,5.40
2018,10,23,06,11,5.50
2018,10,23,06,12,5.60
2018,10,23,06,13,5.60
2018,10,23,06,14,5.60
2018,10,23,06,15,5.50
2018,10,23,06,16,5.50
2018,10,23,06,17,5.40
2018,10,23,06,18,5.30
2018,10,23,06,19,5.20
2018,10,23,06,20,5.20
2018,10,23,06,21,5.20
2018,10,23,06,22,5.20
2018,10,23,06,23,5.20
2018,10,23,06,24,5.20
2018,10,23,06,25,5.20
2018,10,23,06,26,5.20
2018,10,23,06,27,5.30
2018,10,23,06,28,5.30
2018,10,23,06,29,5.30
2018,10,23,06,30,5.30
2018,10,23,06,31,5.30
2018,10,23,06,32,5.30
2018,10,23,06,33,5.20
2018,10,23,06,34,5.20
2018,10,23,06,35,5.20
2018,10,23,06,36,5.20
2018,10,23,06,37,5.20
2018,10,23,06,38,5.20
2018,10,23,06,39,5.10
2018,10,23,06,40,5.00
2018,10,23,06,41,4.90
2018,10,23,06,42,5.00
2018,10,23,06,43,5.00
2018,10,23,06,44,5.10
2018,10,23,06,45,5.10
2018,10,23,06,46,5.10
2018,10,23,06,47,5.10
2018,10,23,06,48,5.10
2018,10,23,06,49,5.00
2018,10,23,06,50,4.90
2018,10,23,06,51,4.90
2018,10,23,06,52,4.80
2018,10,23,06,53,4.80
2018,10,23,06,54,4.80
2018,10,23,06,55,4.70
2018,10,23,06,56,4.70
2018,10,23,06,57,4.80
2018,10,23,06,58,4.80
2018,10,23,06,59,4.80
2018,10,23,07,00,4.90
2018,10,23,07,01,4.90
2018,10,23,07,02,4.90
2018,10,23,07,03,4.90
2018,10,23,07,04,4.90
2018,10,23,07,05,4.80
2018,10,23,07,06,4.80
2018,10,23,07,07,4.80
2018,10,23,07,08,4.80
2018,10,23,07,09,4.80
2018,10,23,07,10,4.70
2018,10,23,07,11,4.70
2018,10,23,07,12,4.70
2018,10,23,07,13,4.80
2018,10,23,07,14,4.80
2018,10,23,07,15,4.80
2018,10,23,07,16,4.90
2018,10,23,07,17,4.90
2018,10,23,07,18,5.00
2018,10,23,07,19,5.00
2018,10,23,07,20,5.00
2018,10,23,07,21,5.00
2018,10,23,07,22,4.90
2018,10,23,07,23,4.90
2018,10,23,07,24,4.80
2018,10,23,07,25,4.80
2018,10,23,07,26,4.80
2018,10,23,07,27,4.70
2018,10,23,07,28,4.70
2018,10,23,07,29,4.70
2018,10,23,07,30,4.70
2018,10,23,07,31,4.60
2018,10,23,07,32,4.60
2018,10,23,07,33,4.50
2018,10,23,07,34,4.40
2018,10,23,07,35,4.40
2018,10,23,07,36,4.30
2018,10,23,07,37,4.20
2018,10,23,07,38,4.10
2018,10,23,07,39,4.00
2018,10,23,07,40,3.90
2018,10,23,07,41,3.80
2018,10,23,07,42,3.80
2018,10,23,07,43,3.70
2018,10,23,07,44,3.60
2018,10,23,07,45,3.60
2018,10,23,07,46,3.50
2018,10,23,07,47,3.40
2018,10,23,07,48,3.40
2018,10,23,07,49,3.30
2018,10,23,07,50,3.30
2018,10,23,07,51,3.30
2018,10,23,07,52,3.30
2018,10,23,07,53,3.30
2018,10,23,07,54,3.30
2018,10,23,07,55,3.30
2018,10,23,07,56,3.30
2018,10,23,07,57,3.40
2018,10,23,07,58,3.40
2018,10,23,07,59,3.40
2018,10,23,08,00,3.40
2018,10,23,08,01,3.40
2018,10,23,08,02,3.40
2018,10,23,08,03,3.40
2018,10,23,08,04,3.40
2018,10,23,08,05,3.40
2018,10,23,08,06,3.40
2018,10,23,08,07,3.40
2018,10,23,08,08,3.40
2018,10,23,08,09,3.40
2018,10,23,08,10,3.30
2018,10,23,08,11,3.30
2018,10,23,08,12,3.30
2018,10,23,08,13,3.30
2018,10,23,08,14,3.30
2018,10,23,08,15,3.30
2018,10,23,08,16,3.30
2018,10,23,08,17,3.30
2018,10,23,08,18,3.30
2018,10,23,08,19,3.30
2018,10,23,08,20,3.30
2018,10,23,08,21,3.20
2018,10,23,08,22,3.30
2018,10,23,08,23,3.30
2018,10,23,08,24,3.30
2018,10,23,08,25,3.30
2018,10,23,08,26,3.30
2018,10,23,08,27,3.30
2018,10,23,08,28,3.30
2018,10,23,08,29,3.30
2018,10,23,08,30,3.30
2018,10,23,08,31,3.30
2018,10,23,08,32,3.30
2018,10,23,08,33,3.40
2018,10,23,08,34,3.40
2018,10,23,08,35,3.40
2018,10,23,08,36,3.50
2018,10,23,08,37,3.50
2018,10,23,08,38,3.50
2018,10,23,08,39,3.60
2018,10,23,08,40,3.60
2018,10,23,08,41,3.60
2018,10,23,08,42,3.60
2018,10,23,08,43,3.60
2018,10,23,08,44,3.70
2018,10,23,08,45,3.70
2018,10,23,08,46,3.70
2018,10,23,08,47,3.70
2018,10,23,08,48,3.80
2018,10,23,08,49,3.80
2018,10,23,08,50,3.80
2018,10,23,08,51,3.80
2018,10,23,08,52,3.80
2018,10,23,08,53,3.90
2018,10,23,08,54,3.90
2018,10,23,08,55,4.00
2018,10,23,08,56,4.10
2018,10,23,08,57,4.10
2018,10,23,08,58,4.20
2018,10,23,08,59,4.20
2018,10,23,09,00,4.30
2018,10,23,09,01,4.40
2018,10,23,09,02,4.40
2018,10,23,09,03,4.40
2018,10,23,09,04,4.50
2018,10,23,09,05,4.50
2018,10,23,09,06,4.50
2018,10,23,09,07,4.60
2018,10,23,09,08,4.60
2018,10,23,09,09,4.70
2018,10,23,09,10,4.70
2018,10,23,09,11,4.70
2018,10,23,09,12,4.80
2018,10,23,09,13,4.80
2018,10,23,09,14,4.80
2018,10,23,09,15,4.90
2018,10,23,09,16,4.90
2018,10,23,09,17,5.00
2018,10,23,09,18,5.10
2018,10,23,09,19,5.20
2018,10,23,09,20,5.20
2018,10,23,09,21,5.30
2018,10,23,09,22,5.40
2018,10,23,09,23,5.50
2018,10,23,09,24,5.60
2018,10,23,09,25,5.70
2018,10,23,09,26,5.80
2018,10,23,09,27,5.90
2018,10,23,09,28,5.90
2018,10,23,09,29,6.00
2018,10,23,09,30,6.00
2018,10,23,09,31,6.10
2018,10,23,09,32,6.10
2018,10,23,09,33,6.20
2018,10,23,09,34,6.20
2018,10,23,09,35,6.30
2018,10,23,09,36,6.30
2018,10,23,09,37,6.30
2018,10,23,09,38,6.30
2018,10,23,09,39,6.40
2018,10,23,09,40,6.40
2018,10,23,09,41,6.40
2018,10,23,09,42,6.40
2018,10,23,09,43,6.40
2018,10,23,09,44,6.40
2018,10,23,09,45,6.40
2018,10,23,09,46,6.40
2018,10,23,09,47,6.40
2018,10,23,09,48,6.40
2018,10,23,09,49,6.50
2018,10,23,09,50,6.50
2018,10,23,09,51,6.60
2018,10,23,09,52,6.60
2018,10,23,09,53,6.70
2018,10,23,09,54,6.70
2018,10,23,09,55,6.70
2018,10,23,09,56,6.80
2018,10,23,09,57,6.80
2018,10,23,09,58,6.80
2018,10,23,09,59,6.80
2018,10,23,10,00,6.80
2018,10,23,10,01,6.80
2018,10,23,10,02,6.80
2018,10,23,10,03,6.90
2018,10,23,10,04,6.90
2018,10,23,10,05,6.90
2018,10,23,10,06,7.00
2018,10,23,10,07,7.10
2018,10,23,10,08,7.10
2018,10,23,10,09,7.20
2018,10,23,10,10,7.30
2018,10,23,10,11,7.30
2018,10,23,10,12,7.40
2018,10,23,10,13,7.40
2018,10,23,10,14,7.50
2018,10,23,10,15,7.50
2018,10,23,10,16,7.60
2018,10,23,10,17,7.60
2018,10,23,10,18,7.70
2018,10,23,10,19,7.70
2018,10,23,10,20,7.80
2018,10,23,10,21,7.90
2018,10,23,10,22,8.00
2018,10,23,10,23,8.10
2018,10,23,10,24,8.20
2018,10,23,10,25,8.30
2018,10,23,10,26,8.40
2018,10,23,10,27,8.50
2018,10,23,10,28,8.60
2018,10,23,10,29,8.70
2018,10,23,10,30,8.80
2018,10,23,10,31,8.80
2018,10,23,10,32,8.90
2018,10,23,10,33,9.00
2018,10,23,10,34,9.00
2018,10,23,10,35,9.10
2018,10,23,10,36,9.20
2018,10,23,10,37,9.20
2018,10,23,10,38,9.20
2018,10,23,10,39,9.20
2018,10,23,10,40,9.20
2018,10,23,10,41,9.20
2018,10,23,10,42,9.20
2018,10,23,10,43,9.20
2018,10,23,10,44,9.20
2018,10,23,10,45,9.20
2018,10,23,10,46,9.20
2018,10,23,10,47,9.20
2018,10,23,10,48,9.20
2018,10,23,10,49,9.20
2018,10,23,10,50,9.20
2018,10,23,10,51,9.20
2018,10,23,10,52,9.20
2018,10,23,10,53,9.20
2018,10,23,10,54,9.30
2018,10,23,10,55,9.30
2018,10,23,10,56,9.30
2018,10,23,10,57,9.30
2018,10,23,10,58,9.20
2018,10,23,10,59,9.20
2018,10,23,11,00,9.20
2018,10,23,11,01,9.20
2018,10,23,11,02,9.20
2018,10,23,11,03,9.20
2018,10,23,11,04,9.20
2018,10,23,11,05,9.20
2018,10,23,11,06,9.30
2018,10,23,11,07,9.30
2018,10,23,11,08,9.30
2018,10,23,11,09,9.40
2018,10,23,11,10,9.40
2018,10,23,11,11,9.40
2018,10,23,11,12,9.40
2018,10,23,11,13,9.40
2018,10,23,11,14,9.40
2018,10,23,11,15,9.40
2018,10,23,11,16,9.40
2018,10,23,11,17,9.40
2018,10,23,11,18,9.40
2018,10,23,11,19,9.40
2018,10,23,11,20,9.30
2018,10,23,11,21,9.30
2018,10,23,11,22,9.30
2018,10,23,11,23,9.30
2018,10,23,11,24,9.30
2018,10,23,11,25,9.30
2018,10,23,11,26,9.30
2018,10,23,11,27,9.30
2018,10,23,11,28,9.30
2018,10,23,11,29,9.30
2018,10,23,11,30,9.30
2018,10,23,11,31,9.40
2018,10,23,11,32,9.40
2018,10,23,11,33,9.40
2018,10,23,11,34,9.50
2018,10,23,11,35,9.50
2018,10,23,11,36,9.50
2018,10,23,11,37,9.50
2018,10,23,11,38,9.60
2018,10,23,11,39,9.60
2018,10,23,11,40,9.60
2018,10,23,11,41,9.60
2018,10,23,11,42,9.70
2018,10,23,11,43,9.70
2018,10,23,11,44,9.70
2018,10,23,11,45,9.70
2018,10,23,11,46,9.80
2018,10,23,11,47,9.80
2018,10,23,11,48,9.80
2018,10,23,11,49,9.90
2018,10,23,11,50,9.90
2018,10,23,11,51,9.90
2018,10,23,11,52,9.90
2018,10,23,11,53,10.00
2018,10,23,11,54,10.00
2018,10,23,11,55,10.10
2018,10,23,11,56,10.10
2018,10,23,11,57,10.10
2018,10,23,11,58,10.20
2018,10,23,11,59,10.20
2018,10,23,12,00,10.20
2018,10,23,12,01,10.30
2018,10,23,12,02,10.30
2018,10,23,12,03,10.30
2018,10,23,12,04,10.40
2018,10,23,12,05,10.40
2018,10,23,12,06,10.50
2018,10,23,12,07,10.50
2018,10,23,12,08,10.60
2018,10,23,12,09,10.60
2018,10,23,12,10,10.70
2018,10,23,12,11,10.70
2018,10,23,12,12,10.80
2018,10,23,12,13,10.80
2018,10,23,12,14,10.80
2018,10,23,12,15,10.90
2018,10,23,12,16,10.90
2018,10,23,12,17,11.00
2018,10,23,12,18,11.10
2018,10,23,12,19,11.10
2018,10,23,12,20,11.20
2018,10,23,12,21,11.30
2018,10,23,12,22,11.30
2018,10,23,12,23,11.40
2018,10,23,12,24,11.50
2018,10,23,12,25,11.50
2018,10,23,12,26,11.60
2018,10,23,12,27,11.70
2018,10,23,12,28,11.70
2018,10,23,12,29,11.80
2018,10,23,12,30,11.80
2018,10,23,12,31,11.80
2018,10,23,12,32,11.80
2018,10,23,12,33,11.80
2018,10,23,12,34,11.80
2018,10,23,12,35,11.80
2018,10,23,12,36,11.80
2018,10,23,12,37,11.80
2018,10,23,12,38,11.80
2018,10,23,12,39,11.80
2018,10,23,12,40,11.80
2018,10,23,12,41,11.80
2018,10,23,12,42,11.80
2018,10,23,12,43,11.80
2018,10,23,12,44,11.80
2018,10,23,12,45,11.80
2018,10,23,12,46,11.80
2018,10,23,12,47,11.80
2018,10,23,12,48,11.80
2018,10,23,12,49,11.80
2018,10,23,12,50,11.80
2018,10,23,12,51,11.80
2018,10,23,12,52,11.90
2018,10,23,12,53,11.90
2018,10,23,12,54,11.90
2018,10,23,12,55,12.00
2018,10,23,12,56,12.00
2018,10,23,12,57,12.10
2018,10,23,12,58,12.10
2018,10,23,12,59,12.10
2018,10,23,13,00,12.10
2018,10,23,13,01,12.10
2018,10,23,13,02,12.10
2018,10,23,13,03,12.10
2018,10,23,13,04,12.10
2018,10,23,13,05,12.20
2018,10,23,13,06,12.20
2018,10,23,13,07,12.20
2018,10,23,13,08,12.20
2018,10,23,13,09,12.20
2018,10,23,13,10,12.20
2018,10,23,13,11,12.20
2018,10,23,13,12,12.20
2018,10,23,13,13,12.30
2018,10,23,13,14,12.30
2018,10,23,13,15,12.30
2018,10,23,13,16,12.30
2018,10,23,13,17,12.30
2018,10,23,13,18,12.30
2018,10,23,13,19,12.40
2018,10,23,13,20,12.40
2018,10,23,13,21,12.40
2018,10,23,13,22,12.40
2018,10,23,13,23,12.40
2018,10,23,13,24,12.40
2018,10,23,13,25,12.40
2018,10,23,13,26,12.40
2018,10,23,13,27,12.40
2018,10,23,13,28,12.40
2018,10,23,13,29,12.40
2018,10,23,13,30,12.40
2018,10,23,13,31,12.50
2018,10,23,13,32,12.50
2018,10,23,13,33,12.60
2018,10,23,13,34,12.60
2018,10,23,13,35,12.60
2018,10,23,13,36,12.60
2018,10,23,13,37,12.60
2018,10,23,13,38,12.70
2018,10,23,13,39,12.70
2018,10,23,13,40,12.80
2018,10,23,13,41,12.80
2018,10,23,13,42,12.80
2018,10,23,13,43,12.80
2018,10,23,13,44,12.90
2018,10,23,13,45,12.90
2018,10,23,13,46,12.90
2018,10,23,13,47,12.90
2018,10,23,13,48,13.00
2018,10,23,13,49,13.00
2018,10,23,13,50,13.10
2018,10,23,13,51,13.10
2018,10,23,13,52,13.10
2018,10,23,13,53,13.10
2018,10,23,13,54,13.10
2018,10,23,13,55,13.10
2018,10,23,13,56,13.00
2018,10,23,13,57,13.00
2018,10,23,13,58,13.00
2018,10,23,13,59,13.00
2018,10,23,14,00,13.00
2018,10,23,14,01,13.10
2018,10,23,14,02,13.10
2018,10,23,14,03,13.00
2018,10,23,14,04,13.00
2018,10,23,14,05,12.90
2018,10,23,14,06,12.90
2018,10,23,14,07,12.90
2018,10,23,14,08,12.80
2018,10,23,14,09,12.80
2018,10,23,14,10,12.80
2018,10,23,14,11,12.80
2018,10,23,14,12,12.80
2018,10,23,14,13,12.80
2018,10,23,14,14,12.80
2018,10,23,14,15,12.80
2018,10,23,14,16,12.80
2018,10,23,14,17,12.80
2018,10,23,14,18,12.70
2018,10,23,14,19,12.70
2018,10,23,14,20,12.70
2018,10,23,14,21,12.70
2018,10,23,14,22,12.70
2018,10,23,14,23,12.70
2018,10,23,14,24,12.60
2018,10,23,14,25,12.60
2018,10,23,14,26,12.60
2018,10,23,14,27,12.60
2018,10,23,14,28,12.60
2018,10,23,14,29,12.60
2018,10,23,14,30,12.60
2018,10,23,14,31,12.60
2018,10,23,14,32,12.60
2018,10,23,14,33,12.60
2018,10,23,14,34,12.60
2018,10,23,14,35,12.60
2018,10,23,14,36,12.60
2018,10,23,14,37,12.60
2018,10,23,14,38,12.60
2018,10,23,14,39,12.60
2018,10,23,14,40,12.60
2018,10,23,14,41,12.60
2018,10,23,14,42,12.60
2018,10,23,14,43,12.60
2018,10,23,14,44,12.60
2018,10,23,14,45,12.60
2018,10,23,14,46,12.60
2018,10,23,14,47,12.60
2018,10,23,14,48,12.60
2018,10,23,14,49,12.60
2018,10,23,14,50,12.60
2018,10,23,14,51,12.60
2018,10,23,14,52,12.60
2018,10,23,14,53,12.60
2018,10,23,14,54,12.60
2018,10,23,14,55,12.60
2018,10,23,14,56,12.60
2018,10,23,14,57,12.60
2018,10,23,14,58,12.60
2018,10,23,14,59,12.60
2018,10,23,15,00,12.60
2018,10,23,15,01,12.60
2018,10,23,15,02,12.60
2018,10,23,15,03,12.50
2018,10,23,15,04,12.50
2018,10,23,15,05,12.50
2018,10,23,15,06,12.40
2018,10,23,15,07,12.40
2018,10,23,15,08,12.40
2018,10,23,15,09,12.40
2018,10,23,15,10,12.40
2018,10,23,15,11,12.30
2018,10,23,15,12,12.30
2018,10,23,15,13,12.30
2018,10,23,15,14,12.30
2018,10,23,15,15,12.40
2018,10,23,15,16,12.40
2018,10,23,15,17,12.40
2018,10,23,15,18,12.40
2018,10,23,15,19,12.40
2018,10,23,15,20,12.40
2018,10,23,15,21,12.40
2018,10,23,15,22,12.40
2018,10,23,15,23,12.40
2018,10,23,15,24,12.40
2018,10,23,15,25,12.40
2018,10,23,15,26,12.40
2018,10,23,15,27,12.40
2018,10,23,15,28,12.40
2018,10,23,15,29,12.30
2018,10,23,15,30,12.30
2018,10,23,15,31,12.30
2018,10,23,15,32,12.30
2018,10,23,15,33,12.30
2018,10,23,15,34,12.30
2018,10,23,15,35,12.30
2018,10,23,15,36,12.30
2018,10,23,15,37,12.30
2018,10,23,15,38,12.30
2018,10,23,15,39,12.30
2018,10,23,15,40,12.30
2018,10,23,15,41,12.30
2018,10,23,15,42,12.30
2018,10,23,15,43,12.20
2018,10,23,15,44,12.20
2018,10,23,15,45,12.20
2018,10,23,15,46,12.20
2018,10,23,15,47,12.20
2018,10,23,15,48,12.20
2018,10,23,15,49,12.20
2018,10,23,15,50,12.10
2018,10,23,15,51,12.10
2018,10,23,15,52,12.10
2018,10,23,15,53,12.10
2018,10,23,15,54,12.10
2018,10,23,15,55,12.10
2018,10,23,15,56,12.00
2018,10,23,15,57,12.00
2018,10,23,15,58,12.00
2018,10,23,15,59,12.00
2018,10,23,16,00,12.00
2018,10,23,16,01,11.90
2018,10,23,16,02,11.90
2018,10,23,16,03,11.90
2018,10,23,16,04,11.90
2018,10,23,16,05,11.90
2018,10,23,16,06,11.90
2018,10,23,16,07,11.80
2018,10,23,16,08,11.80
2018,10,23,16,09,11.80
2018,10,23,16,10,11.80
2018,10,23,16,11,11.80
2018,10,23,16,12,11.80
2018,10,23,16,13,11.80
2018,10,23,16,14,11.70
2018,10,23,16,15,11.70
2018,10,23,16,16,11.70
2018,10,23,16,17,11.70
2018,10,23,16,18,11.70
2018,10,23,16,19,11.60
2018,10,23,16,20,11.60
2018,10,23,16,21,11.60
2018,10,23,16,22,11.60
2018,10,23,16,23,11.60
2018,10,23,16,24,11.50
2018,10,23,16,25,11.50
2018,10,23,16,26,11.50
2018,10,23,16,27,11.50
2018,10,23,16,28,11.50
2018,10,23,16,29,11.50
2018,10,23,16,30,11.40
2018,10,23,16,31,11.40
2018,10,23,16,32,11.40
2018,10,23,16,33,11.40
2018,10,23,16,34,11.40
2018,10,23,16,35,11.40
2018,10,23,16,36,11.40
2018,10,23,16,37,11.40
2018,10,23,16,38,11.40
2018,10,23,16,39,11.40
2018,10,23,16,40,11.40
2018,10,23,16,41,11.40
2018,10,23,16,42,11.30
2018,10,23,16,43,11.30
2018,10,23,16,44,11.30
2018,10,23,16,45,11.30
2018,10,23,16,46,11.30
2018,10,23,16,47,11.30
2018,10,23,16,48,11.30
2018,10,23,16,49,11.30
2018,10,23,16,50,11.20
2018,10,23,16,51,11.20
2018,10,23,16,52,11.20
2018,10,23,16,53,11.20
2018,10,23,16,54,11.20
2018,10,23,16,55,11.10
2018,10,23,16,56,11.10
2018,10,23,16,57,11.10
2018,10,23,16,58,11.10
2018,10,23,16,59,11.10
2018,10,23,17,00,11.10
2018,10,23,17,01,11.00
2018,10,23,17,02,11.00
2018,10,23,17,03,11.00
2018,10,23,17,04,10.90
2018,10,23,17,05,10.90
2018,10,23,17,06,10.90
2018,10,23,17,07,10.90
2018,10,23,17,08,10.90
2018,10,23,17,09,10.90
2018,10,23,17,10,10.80
2018,10,23,17,11,10.80
2018,10,23,17,12,10.80
2018,10,23,17,13,10.80
2018,10,23,17,14,10.80
2018,10,23,17,15,10.80
2018,10,23,17,16,10.70
2018,10,23,17,17,10.70
2018,10,23,17,18,10.70
2018,10,23,17,19,10.60
2018,10,23,17,20,10.60
2018,10,23,17,21,10.60
2018,10,23,17,22,10.60
2018,10,23,17,23,10.60
2018,10,23,17,24,10.60
2018,10,23,17,25,10.50
2018,10,23,17,26,10.50
2018,10,23,17,27,10.50
2018,10,23,17,28,10.50
2018,10,23,17,29,10.40
2018,10,23,17,30,10.40
2018,10,23,17,31,10.40
2018,10,23,17,32,10.40
2018,10,23,17,33,10.40
2018,10,23,17,34,10.40
2018,10,23,17,35,10.40
2018,10,23,17,36,10.40
2018,10,23,17,37,10.40
2018,10,23,17,38,10.30
2018,10,23,17,39,10.30
2018,10,23,17,40,10.30
2018,10,23,17,41,10.30
2018,10,23,17,42,10.30
2018,10,23,17,43,10.30
2018,10,23,17,44,10.30
2018,10,23,17,45,10.30
2018,10,23,17,46,10.30
2018,10,23,17,47,10.30
2018,10,23,17,48,10.30
2018,10,23,17,49,10.30
2018,10,23,17,50,10.30